Location: Unspecified
(35.6961°N, 0.0000°E)
Time: 02:52:55
(UTC+00:00)

Courier 1B Rocket - Pass Details

Date: 24 May 2019
Orbit: 920 x 1202 km, 28.2° (Epoch: 14 June)

Event Time Altitude Azimuth Distance (km) Brightness Sun altitude
Rises 19:59:41 0° 268° (W) 4,092 9.2 -10.4°
Reaches altitude 10° 20:02:51 10° 259° (W) 3,115 8.3 -10.9°
Maximum altitude 20:09:40 34° 198° (SSW) 1,799 6.2 -12.0°
Enters shadow 20:14:52 15° 142° (SE) 2,605 6.6 -12.8°
